Location: Il Ritiro
(43.4167°N, 13.1333°E)
Time: 01:15:27
(UTC+00:00)

Cosmos 405 - Pass Details

Date: 05 July 2020
Orbit: 450 x 465 km, 81.3° (Epoch: 11 August)

Event Time Altitude Azimuth Distance (km) Brightness Sun altitude
Rises 23:24:10 0° 349° (N) 2,506 8.0 -23.9°
Reaches altitude 10° 23:26:16 10° 349° (N) 1,623 6.7 -23.8°
Enters shadow 23:29:01 52° 346° (NNW) 586 3.7 -23.8°
